This demonstration page uses our WeatherBlox Daily Observations layout. Learn more.

Left ArrowRight Arrow

38.80484, -77.04692

Hourly Observations for April 3, 2016

Temp ( °F °C ) Dew Point ( °F °C ) Humidity (%) Winds ( mph kmh ) Pressure ( in mb ) Visibility ( mi km ) Precip ( " mm )
12:52 am 00:52 Mostly Cloudy 45 7.2 25 -3.9 46 46 W 18 30 29.56 1001 10 16 0.00 0.00
1:52 am 01:52 Mostly Clear 44 6.7 19 -7.2 37 37 W 20 31 29.59 1002 10 16 0.00 0.00
2:52 am 02:52 Mostly Cloudy 43 6.1 21 -6.1 42 42 W 20 31 29.65 1004 10 16 0.00 0.00
3:52 am 03:52 Mostly Cloudy 41 5 25 -3.9 53 53 NW 38 61 29.70 1006 10 16 0.00 0.00
4:52 am 04:52 Mostly Cloudy with Light Snow 38 3.3 24 -4.4 57 57 WNW 16 26 29.75 1007 9 14 0.00 0.03
5:52 am 05:52 Partly Cloudy 38 3.3 20 -6.7 48 48 NW 25 41 29.79 1009 10 16 0.00 0.03
6:52 am 06:52 Mostly Sunny 37 2.8 16 -8.9 42 42 NW 25 41 29.84 1010 10 16 0.00 0.00
7:52 am 07:52 Partly Cloudy 37 2.8 16 -8.9 42 42 NW 15 24 29.90 1013 10 16 0.00 0.00
8:52 am 08:52 Mostly Cloudy 38 3.3 18 -7.8 44 44 WNW 17 28 29.96 1015 10 16 0.00 0.00
9:52 am 09:52 Mostly Cloudy 39 3.9 15 -9.4 38 38 NW 25 41 29.99 1016 10 16 0.00 0.00
10:52 am 10:52 Mostly Cloudy 42 5.6 17 -8.3 36 36 NW 18 30 30.02 1017 10 16 0.00 0.00
11:52 am 11:52 Partly Cloudy 44 6.7 15 -9.4 31 31 WNW 22 35 30.02 1017 10 16 0.00 0.00
12:52 pm 12:52 Mostly Sunny 45 7.2 17 -8.3 33 33 NW 13 20 30.01 1016 10 16 0.00 0.00
1:52 pm 13:52 Sunny 47 8.3 18 -7.8 31 31 WNW 10 17 30.01 1016 10 16 0.00 0.00
2:52 pm 14:52 Sunny 49 9.4 17 -8.3 28 28 W 16 26 30.00 1016 10 16 0.00 0.00
3:52 pm 15:52 Sunny 52 11.1 19 -7.2 27 27 WNW 13 20 29.98 1015 10 16 0.00 0.00
4:52 pm 16:52 Mostly Sunny 53 11.7 21 -6.1 28 28 W 12 19 29.98 1015 10 16 0.00 0.00
5:52 pm 17:52 Mostly Sunny 53 11.7 21 -6.1 28 28 W 9 15 29.99 1016 10 16 0.00 0.00
6:52 pm 18:52 Mostly Sunny 54 12.2 20 -6.7 26 26 Calm 29.99 1016 10 16 0.00 0.00
7:52 pm 19:52 Mostly Clear 51 10.6 23 -5 33 33 ESE 6 9 29.98 1015 10 16 0.00 0.00
8:52 pm 20:52 Mostly Clear 50 10 26 -3.3 39 39 SE 6 9 29.99 1016 10 16 0.00 0.00
9:52 pm 21:52 Clear 50 10 24 -4.4 36 36 SSE 9 15 30.00 1016 10 16 0.00 0.00
10:52 pm 22:52 Clear 50 10 28 -2.2 43 43 SSE 10 17 29.98 1015 10 16 0.00 0.00
11:52 pm 23:52 Clear 49 9.4 32 0 52 52 S 9 15 29.95 1014 10 16 0.00 0.00

Powered by AerisWeather